星链-4382 (STARLINK-4382 )

导读

STARLINK-4382是美国SpaceX星链互联网星座的一员,于2022年7月22日发射入轨。星链计划旨在构建全球卫星互联网覆盖,为偏远地区、海洋航空等场景提供低延迟宽带服务。该卫星作为低轨通信卫星,运行近地轨道,延续星链星座持续组网扩容的节奏,助力星座全球服务覆盖能力提升。

Basic Information
目录编号:
53194
目录名称:
STARLINK-4382
国际标识:
2022-084F
轨道中心:
EARTH
卫星名称:
星链-4382
卫星全名:
星链-4382 (STARLINK-4382 )
卫星状态:
在轨 (已飞行1513 天)
发射日期:
2022-07-22 UTC
国别 :
美国 (US)
星等 :
--
This satellite is enrolled in the Space Conjunction Data Service (SCDS) and the current flight risk assessment level is: No High Risk
Orbit Information
数据来源 国际轨道数据
星历时间: 2026-09-12T12:00:02+0800
6小时前
查看轨道信息
半长轴: 6843.718km
偏心率: 0.0001594
轨道倾角: 97.284°
近地点辐角 85.107°
升交点赤经 311.017°
平近点角 136.907°
近地点: 464.49km
远地点: 466.672km
周期: 93.907分钟
每日圈数: 15.334324
Detailed Information
固有亮度:
5
最大亮度:
2.5
卫星平台:
Starlink v1.5
覆盖范围:
全球
运营商:
太空探索技术公司
运营商所在国:
美国
制造商(研发单位):
太空探索技术公司
制造商所在国:
美国
使用方式:
暂无
Satellite Introduction
星链(Starlink)计划是由太空探索技术公司(SpaceX)提出的一个巨型低轨卫星互联网星座项目,计划在2019年至2024年间在太空搭建由约1.2万颗卫星组成的“星链”网络,其中1584颗将部署在地球上空550千米处的近地轨道,并从2020年开始工作。该卫星仍在工作。
2D Orbit Map
3D Orbit Map
Orbit Altitude Analysis Chart
Orbit Inclination Analysis Chart
Orbit Comprehensive Analysis Chart
View Comprehensive Chart
Conjunction Data List
Event ID Objects TCA Miss Dist (km) Collision Risk Probability Collision Risk Index (CRI) Action
CDM_260915-010005-319406-881321
2026-09-15T
01:00:06+0000
0.662 km
远距离
9.946616E-5 中风险 0.75
CDM_260908-075605-319406-732921
2026-09-08T
07:56:45+0000
1.499 km
极远距离
5.074661E-6 低风险 0.49
CDM_260912-184104-791105-319421
2026-09-12T
18:41:13+0000
1.647 km
极远距离
4.963617E-6 低风险 0.49
CDM_260914-232605-319406-881321
2026-09-14T
23:26:08+0000
2.283 km
极远距离
2.080579E-6 低风险 0.41
CDM_260913-200005-319406-863121
OBJECT E (68631)
2026-09-13T
20:00:51+0000
2.429 km
极远距离
1.706265E-6 低风险 0.4
CDM_260911-203405-319405-400621
2026-09-11T
20:34:19+0000
2.704 km
极远距离
1.488311E-6 低风险 0.38
CDM_260913-194805-212205-319421
2026-09-13T
19:48:33+0000
2.328 km
极远距离
1.166083E-6 低风险 0.36
Miss Distance Evolution Trend with All Objects
Collision Probability Evolution Trend with All Objects